Вернуться в каталог

CZ-6A DEB

АктивенSSO
NORAD 56276·DEBRIS·🇨🇳 China

Запущен Nov 11, 2022 с Taiyuan Satellite Launch Center

Loading…

Ближайшие Пролёты (ближайшие 24 часа)

TLE

СвежийSource: Space-Track

Эпоха: Sep 14, 2026, 00:04 UTC

1 56276U 22151ACU 26257.00330161  .00000492  00000-0  24740-3 0  9998
2 56276  98.7770 272.3261 0010075  61.4811 298.7379 14.20945169180839

Отслеживайте CZ-6A DEB в реальном времени с AllMySat

Download on the App Store